Weather History for KRNO - January, 2013

Change the Weather History Date:

Sunday, January 13, 2013

  Actual Average Record
Temperature  
Mean Temperature 17 °F 35 °F  
Max Temperature 26 °F 45 °F 62 °F (2006)
Min Temperature 8 °F 25 °F -1 °F (1963)
Degree Days  
Heating Degree Days 48 30  
Month to date heating degree days 511 392  
Since 1 July heating degree days 2187 2416  
Cooling Degree Days 0 0  
Month to date cooling degree days 0 0  
Year to date cooling degree days 0 0  
Moisture  
Dew Point 4 °F    
Average Humidity 63    
Maximum Humidity 80    
Minimum Humidity 46    
Precipitation  
Precipitation T in 0.04 in 1.14 in (1980)
Month to date precipitation 0.05 0.49  
Year to date precipitation 0.05 0.49  
Snow  
Snow T in 0.30 in 8.60 in (1911)
Month to date snowfall 0.6 3.1  
Since 1 July snowfall 8.6 11.5  
Snow Depth T in    
Sea Level Pressure  
Sea Level Pressure 30.30 in    
Wind  
Wind Speed 4 mph (NNE)    
Max Wind Speed 13 mph    
Max Gust Speed 15 mph    
Visibility 10 miles    
Events Snow    
T = Trace of Precipitation, MM = Missing Value Source: NWS Daily Summary

Daily Weather History Graph

Daily Weather History Graph

Search for Another Location

Airport or City:

Trip Planner

Search our weather history database for the weather conditions in past years. The results will help you decide how hot, cold, wet, or windy it might be!

Date:

Astronomy

Jan. 13, 2013 Rise Set
Actual Time 7:18 AM PST 4:57 PM PST
Civil Twilight 6:48 AM PST 5:27 PM PST
Nautical Twilight 6:15 AM PST 6:00 PM PST
Astronomical Twilight 5:43 AM PST 6:32 PM PST
Moon 8:20 AM PST (1/13) 7:41 PM PST (1/13)
Length of Visible Light 10h 38m
Length of Day
9h 39m
Waxing Crescent, 6% of the Moon is Illuminated
Jan 13
Waxing Crescent
Jan 18
First Quarter
Jan 26
Full
Feb 3
Last Quarter
Feb 9
New

Hourly Weather History & Observations

Time (PST) Temp. Windchill Dew Point Humidity Pressure Visibility Wind Dir Wind Speed Gust Speed Precip Events Conditions
12:55 AM 12.0 °F 4.1 °F 3.9 °F 70% 30.28 in 10.0 mi WNW 4.6 mph - N/A   Clear
1:55 AM 12.0 °F 2.7 °F 3.0 °F 67% 30.27 in 10.0 mi West 5.8 mph - N/A   Clear
2:55 AM 10.9 °F - 3.9 °F 73% 30.26 in 10.0 mi Calm Calm - N/A   Clear
3:55 AM 10.0 °F 3.6 °F 1.0 °F 67% 30.25 in 10.0 mi WNW 3.5 mph - N/A   Clear
4:55 AM 9.0 °F - 1.0 °F 70% 30.27 in 10.0 mi Calm Calm - N/A   Clear
5:55 AM 8.1 °F 1.4 °F 3.0 °F 80% 30.28 in 10.0 mi SW 3.5 mph - N/A   Scattered Clouds
6:55 AM 8.1 °F 1.4 °F -0.9 °F 67% 30.30 in 10.0 mi Variable 3.5 mph - N/A   Mostly Cloudy
7:55 AM 8.1 °F -2.0 °F -0.9 °F 67% 30.32 in 10.0 mi West 5.8 mph - N/A   Mostly Cloudy
8:17 AM 8.6 °F 0.1 °F -0.4 °F 67% 30.18 in 10.0 mi WNW 4.6 mph - N/A   Mostly Cloudy
8:55 AM 12.0 °F - 3.0 °F 67% 30.32 in 9.0 mi Calm Calm - 0.00 in Snow Light Snow
9:55 AM 12.9 °F - 5.0 °F 71% 30.34 in 10.0 mi Calm Calm - 0.00 in   Mostly Cloudy
10:04 AM 14.0 °F 8.2 °F 5.0 °F 67% 30.20 in 10.0 mi Variable 3.5 mph - N/A   Mostly Cloudy
10:55 AM 18.0 °F - 6.1 °F 60% 30.32 in 10.0 mi Calm Calm - N/A   Scattered Clouds
11:55 AM 19.9 °F - 9.0 °F 62% 30.30 in 10.0 mi Calm Calm - N/A   Scattered Clouds
12:55 PM 21.9 °F 15.7 °F 9.0 °F 58% 30.28 in 10.0 mi NE 4.6 mph - N/A   Scattered Clouds
1:55 PM 25.0 °F 17.1 °F 9.0 °F 51% 30.26 in 10.0 mi North 6.9 mph - N/A   Partly Cloudy
2:55 PM 25.0 °F 15.5 °F 7.0 °F 46% 30.27 in 10.0 mi NE 9.2 mph - N/A   Partly Cloudy
3:55 PM 24.1 °F 13.1 °F 6.1 °F 46% 30.30 in 10.0 mi NNE 11.5 mph - N/A   Scattered Clouds
4:55 PM 21.0 °F 9.9 °F 7.0 °F 55% 30.32 in 10.0 mi ENE 10.4 mph - N/A   Scattered Clouds
5:55 PM 19.9 °F 10.1 °F 6.1 °F 55% 30.34 in 10.0 mi East 8.1 mph - N/A   Partly Cloudy
6:55 PM 19.0 °F 11.1 °F 5.0 °F 54% 30.35 in 10.0 mi ESE 5.8 mph - N/A   Partly Cloudy
7:55 PM 18.0 °F 9.8 °F 5.0 °F 57% 30.39 in 10.0 mi East 5.8 mph - N/A   Partly Cloudy
8:55 PM 17.6 °F 12.3 °F 5.0 °F 58% 30.25 in 10.0 mi ENE 3.5 mph - N/A   Partly Cloudy
9:55 PM 16.0 °F - 5.0 °F 62% 30.39 in 10.0 mi Calm Calm - N/A   Partly Cloudy
10:55 PM 12.9 °F 6.9 °F 3.9 °F 67% 30.40 in 10.0 mi South 3.5 mph - N/A   Partly Cloudy
11:55 PM 12.9 °F - 3.9 °F 67% 30.40 in 10.0 mi Calm Calm - N/A   Clear